Wind_Speed
9 8 8 7 6 6 6 6 6 6 6 6 7 8 9 10 10 10 11 12 13 13 13 13 12 13 15 15 15 16 17 17 17 17 16 15 14 13 12 11 10 9 8
8 7 6 6 5 5 6 6 6 5 5 5 5 6 8 9 10 10 11 11 12 13 13 14 14 14 15 16 17 17 18 19 20 19 19 19 17 16 15 14 13 11 10
7 7 6 6 6 6 6 6 5 5 4 4 5 6 7 7 9 9 10 11 12 13 14 14 14 15 15 16 17 19 18 19 21 21 21 22 21 20 18 17 16 15 13
7 6 5 5 5 5 5 5 4 4 4 5 5 6 7 7 9 10 11 11 12 13 14 14 15 15 16 16 17 17 18 19 20 22 23 23 23 22 22 21 19 18 17
4 4 3 3 3 3 4 4 4 4 5 5 5 6 7 8 9 10 11 12 13 14 14 15 15 16 17 18 18 18 18 19 20 21 23 23 24 24 24 24 23 22 20
3 2 2 2 3 3 4 5 5 5 5 6 7 7 8 8 9 10 11 12 13 13 14 15 16 17 17 18 18 19 19 19 20 21 23 24 24 25 26 26 25 24 24
3 1 1 2 3 4 5 6 6 6 6 7 7 8 8 8 9 10 10 11 12 13 14 15 15 16 17 18 18 19 19 20 21 21 22 24 25 25 26 27 27 27 26
2 1 1 2 3 4 5 5 6 7 8 8 8 8 8 9 10 10 11 12 12 13 15 15 16 16 17 18 19 20 20 20 21 22 23 24 25 25 25 27 28 28 28
2 2 1 2 3 4 5 6 7 8 8 8 9 9 10 10 11 11 12 12 13 13 14 15 16 17 18 18 19 20 21 21 21 21 22 23 25 26 27 27 28 30 29
3 3 2 2 3 4 5 7 8 9 9 9 10 10 11 12 12 12 13 13 14 14 15 16 16 17 18 19 20 20 21 22 23 23 23 24 24 25 26 28 29 29 30
4 3 3 3 4 6 6 8 9 10 10 10 11 11 12 13 14 14 14 14 14 15 16 17 17 18 19 20 21 21 22 23 23 24 24 24 25 25 25 26 28 29 31
5 5 5 5 6 7 8 9 10 11 11 12 12 13 14 14 15 15 15 16 16 16 17 18 18 19 20 20 21 22 23 24 24 25 25 26 27 27 27 27 28 29 30
6 7 7 8 8 9 10 11 12 13 13 14 14 15 15 16 16 16 17 17 18 18 18 19 19 20 21 21 22 22 23 24 25 26 27 27 28 29 29 30 30 30 30
8 9 10 11 11 12 12 13 14 15 16 16 16 17 17 17 18 18 19 19 19 20 20 20 20 21 21 22 22 23 23 25 26 27 27 28 28 29 30 31 32 32 33
11 12 12 13 14 15 15 16 17 17 17 18 19 19 20 20 20 20 21 21 21 21 21 21 21 22 22 23 23 24 24 25 26 27 28 28 29 30 31 32 33 34 34
13 14 15 16 17 18 18 19 19 19 20 20 21 21 22 22 22 22 23 23 23 23 23 23 23 23 23 24 24 24 25 25 26 27 28 29 30 31 32 33 34 35 35
16 17 17 18 19 20 21 21 21 21 22 22 23 23 23 24 24 24 24 24 25 25 25 25 26 25 25 25 25 25 26 26 27 27 28 29 30 31 32 34 35 36 37
19 19 20 21 21 22 23 24 23 24 24 24 25 25 25 25 26 26 26 26 26 27 27 27 27 27 27 27 27 27 27 27 27 28 29 29 30 31 32 33 34 36 37
21 21 22 23 23 25 25 25 25 25 26 26 27 27 27 27 27 28 28 28 28 28 28 28 28 28 28 28 28 29 29 29 29 29 29 30 30 31 32 33 34 35 36
23 24 24 25 26 26 26 26 27 27 28 28 29 29 29 29 29 30 30 30 30 30 29 29 29 30 30 30 30 30 30 30 30 31 31 31 31 32 32 33 34 35 36
25 26 27 27 27 27 28 28 28 29 29 30 30 31 31 31 31 31 31 31 31 31 31 31 31 31 32 32 32 31 31 31 32 32 32 32 33 33 33 33 34 35 36
27 27 28 28 29 29 30 30 30 31 31 32 32 32 33 33 33 33 33 33 33 33 33 33 33 33 33 34 34 33 33 33 33 34 34 33 34 34 34 35 35 35 35
29 29 30 31 31 32 32 32 32 32 32 32 33 34 34 34 34 34 34 34 34 35 35 35 34 34 35 35 36 35 35 35 35 35 36 35 35 35 35 35 35 35 36
31 32 32 32 33 34 35 35 34 34 34 35 35 35 35 35 36 36 36 36 36 37 37 37 36 36 37 38 38 38 37 37 37 37 38 37 37 36 36 36 37 37 37
33 35 35 35 35 35 35 35 36 36 36 37 37 38 38 37 37 38 38 38 39 39 40 40 39 39 39 39 40 40 40 40 39 39 39 39 38 37 37 37 37 37 37
35 36 36 36 36 36 36 37 38 39 39 39 39 40 39 39 39 40 40 41 41 42 43 42 42 41 41 41 41 41 42 42 41 40 40 40 39 38 37 37 37 37 37
Wind_Direction
278 284 287 287 287 284 287 289 291 285 277 261 260 261 264 262 262 262 261 262 261 260 260 262 264 263 258 255 254 253 248 245 243 241 238 235 234 234 234 235 235 236 235
274 281 289 296 296 292 295 300 296 289 282 276 277 274 275 276 276 272 265 266 264 263 263 263 265 265 261 257 256 257 256 248 244 243 241 238 236 235 235 236 236 236 237
273 281 287 297 298 299 302 304 302 302 295 294 294 292 288 285 286 279 273 272 271 268 267 267 266 267 264 263 261 259 260 254 246 244 243 242 239 238 236 236 237 237 237
271 284 289 299 308 315 318 318 317 316 311 306 297 302 301 294 290 285 281 279 279 277 274 272 271 269 266 266 267 264 261 260 252 246 245 245 244 243 241 238 238 238 238
264 283 293 308 327 333 337 335 327 326 328 326 315 307 302 297 294 291 286 284 283 280 277 276 275 272 270 269 269 268 264 260 257 253 248 246 246 244 243 242 241 240 239
269 284 308 336 351 348 343 348 340 343 340 333 327 322 314 308 303 300 296 292 289 286 281 279 278 278 275 273 272 271 268 265 260 259 252 248 248 247 244 243 242 242 242
257 268 298 337 359 353 351 354 349 344 339 335 332 328 324 318 310 306 302 298 295 292 289 285 281 280 279 278 276 275 271 269 264 261 257 253 251 251 248 244 243 243 243
231 263 286 321 340 340 343 346 342 341 340 338 335 332 328 324 319 317 311 305 299 296 294 292 287 284 283 280 278 277 275 271 266 262 260 257 255 254 253 248 245 245 245
237 249 268 313 329 336 340 341 337 338 338 338 336 334 332 330 327 323 319 314 310 305 300 296 294 291 288 285 281 278 276 272 270 267 264 262 260 256 254 252 249 247 247
240 237 256 298 320 332 339 341 341 341 341 341 340 337 334 332 330 326 323 319 315 310 305 301 298 295 291 288 286 282 279 275 272 269 267 264 263 259 256 254 253 250 248
230 243 267 293 311 321 329 333 335 337 338 338 336 334 332 330 329 328 325 321 317 313 310 306 303 300 295 291 287 284 282 279 276 274 269 266 264 261 258 256 255 254 250
241 258 273 287 302 313 321 326 328 331 330 330 330 329 328 328 326 326 325 322 319 316 313 309 307 304 301 297 291 286 283 280 278 275 272 269 266 264 261 259 258 257 253
255 265 275 285 294 303 312 317 319 322 322 323 323 323 322 322 323 322 321 320 319 317 315 312 309 305 302 299 295 290 286 282 279 276 273 270 268 266 263 261 260 257 256
264 270 277 283 290 297 305 310 312 314 316 317 317 317 317 317 319 319 318 317 317 316 315 314 311 307 304 301 297 293 289 285 282 279 276 273 270 267 264 262 260 259 257
269 274 279 283 288 293 299 305 308 309 311 312 313 313 312 313 313 314 314 314 314 314 314 313 312 309 305 302 299 295 292 288 285 281 278 275 273 269 266 264 262 260 258
271 276 280 284 287 290 296 300 302 304 307 308 308 308 309 309 309 310 310 310 311 310 311 311 311 310 308 304 300 296 294 290 287 284 281 278 275 272 269 266 262 261 260
274 276 280 283 287 291 294 298 299 302 304 304 305 305 306 306 307 307 307 308 308 308 308 308 309 309 307 305 302 298 295 292 289 286 284 281 278 275 271 268 265 262 260
276 278 281 283 287 290 292 295 298 300 300 301 302 302 303 303 304 305 305 306 306 306 305 305 306 306 305 304 302 300 297 294 291 287 284 283 281 278 274 271 268 264 261
276 279 282 284 286 289 290 292 295 296 298 299 299 299 300 301 302 302 303 304 304 304 304 304 304 303 303 302 302 300 298 296 293 289 285 283 282 280 277 274 271 267 264
278 280 282 285 286 287 289 290 292 294 295 297 297 297 298 299 299 299 300 300 301 302 302 302 302 302 301 301 301 300 299 297 294 291 288 285 282 281 279 276 273 269 267
279 280 282 284 286 287 288 289 291 292 293 294 295 295 295 295 297 297 298 299 298 299 299 300 301 300 300 300 300 299 298 297 295 292 290 287 284 281 279 277 275 272 269
279 281 282 283 285 286 286 288 289 290 291 292 292 293 294 294 295 296 296 297 297 296 297 298 299 299 299 299 299 299 298 297 296 293 291 288 285 281 279 277 275 273 271
279 281 281 282 283 283 284 286 287 289 291 292 292 293 293 292 292 293 294 295 295 295 295 296 297 298 298 298 298 298 297 296 295 293 291 288 285 283 279 277 275 273 271
277 279 280 281 281 282 283 284 286 287 290 290 291 292 293 293 292 292 292 293 294 294 294 295 295 296 297 296 296 296 295 295 294 294 292 289 286 283 280 278 276 273 271
279 278 279 280 281 282 282 284 286 287 289 289 290 291 292 292 291 291 291 292 293 292 293 293 293 294 294 294 294 294 294 293 293 292 290 288 286 283 281 279 277 274 272
280 281 279 280 280 281 283 285 287 289 291 291 291 291 291 291 291 291 291 292 292 292 292 292 293 292 293 292 292 292 292 292 292 291 289 287 285 283 280 278 276 275 272
Height
5888 5887 5887 5887 5887 5887 5887 5887 5887 5887 5887 5887 5887 5887 5888 5888 5889 5890 5890 5890 5891 5892 5893 5894 5894 5895 5896 5897 5899 5900 5901 5902 5904 5905 5906 5907 5909 5910 5911 5912 5914 5915 5916
5886 5886 5886 5886 5886 5886 5886 5886 5885 5885 5885 5885 5885 5886 5886 5886 5887 5887 5888 5888 5889 5890 5890 5891 5892 5892 5893 5894 5896 5897 5898 5899 5900 5902 5903 5905 5906 5907 5909 5910 5912 5913 5914
5885 5885 5885 5885 5885 5884 5884 5884 5884 5883 5883 5884 5884 5884 5884 5884 5884 5885 5886 5886 5886 5887 5888 5888 5889 5890 5890 5891 5892 5893 5894 5895 5897 5898 5900 5901 5903 5904 5906 5907 5909 5910 5912
5883 5883 5884 5884 5884 5883 5883 5883 5883 5882 5882 5882 5883 5883 5883 5883 5883 5883 5884 5884 5884 5885 5885 5886 5886 5887 5887 5888 5889 5890 5891 5892 5893 5894 5896 5898 5900 5901 5903 5904 5906 5907 5909
5881 5882 5882 5883 5883 5883 5882 5882 5882 5881 5881 5881 5881 5881 5881 5881 5881 5881 5881 5882 5882 5882 5882 5882 5883 5883 5884 5885 5885 5886 5886 5887 5889 5890 5892 5893 5895 5897 5898 5900 5902 5904 5906
5880 5881 5881 5882 5882 5882 5882 5881 5881 5881 5880 5880 5880 5880 5879 5879 5879 5879 5879 5879 5879 5879 5879 5880 5880 5880 5880 5881 5881 5881 5882 5883 5884 5885 5886 5888 5890 5892 5894 5895 5897 5899 5901
5879 5880 5881 5881 5881 5881 5881 5881 5880 5880 5880 5879 5879 5878 5878 5878 5877 5877 5876 5876 5876 5876 5876 5876 5876 5876 5876 5877 5877 5877 5878 5879 5880 5881 5881 5883 5885 5886 5888 5890 5892 5894 5896
5878 5879 5880 5880 5881 5881 5881 5880 5880 5880 5879 5878 5877 5877 5877 5877 5875 5875 5874 5873 5873 5873 5872 5872 5872 5872 5872 5873 5873 5873 5873 5874 5875 5876 5877 5878 5879 5881 5883 5884 5886 5889 5891
5877 5878 5879 5880 5880 5880 5880 5879 5879 5879 5878 5877 5876 5875 5875 5874 5873 5873 5872 5871 5870 5870 5869 5868 5868 5868 5868 5868 5868 5868 5868 5869 5869 5870 5871 5872 5874 5875 5877 5879 5881 5883 5885
5877 5878 5878 5879 5879 5879 5879 5878 5878 5877 5876 5875 5874 5873 5873 5872 5871 5870 5869 5868 5867 5866 5866 5865 5864 5864 5863 5863 5863 5863 5863 5863 5864 5865 5865 5866 5868 5869 5871 5873 5874 5876 5878
5876 5877 5877 5878 5878 5878 5878 5877 5876 5876 5875 5874 5873 5872 5871 5870 5869 5868 5867 5866 5864 5863 5862 5861 5860 5859 5859 5858 5858 5858 5858 5858 5858 5858 5859 5860 5861 5863 5864 5866 5868 5869 5871
5875 5876 5876 5877 5877 5877 5876 5876 5875 5874 5873 5872 5871 5870 5869 5868 5866 5865 5864 5862 5861 5860 5859 5857 5856 5855 5854 5853 5852 5852 5852 5852 5852 5852 5853 5854 5855 5856 5857 5859 5861 5862 5864
5874 5874 5875 5875 5875 5875 5875 5874 5873 5872 5871 5870 5868 5867 5866 5865 5864 5862 5861 5859 5858 5856 5855 5853 5852 5850 5849 5848 5847 5846 5845 5845 5845 5845 5846 5847 5848 5849 5850 5852 5853 5855 5857
5872 5872 5873 5873 5873 5873 5872 5871 5871 5869 5868 5867 5866 5864 5863 5862 5860 5859 5857 5856 5854 5853 5851 5849 5848 5846 5844 5843 5841 5840 5839 5839 5838 5838 5839 5839 5840 5841 5842 5844 5845 5847 5849
5869 5870 5870 5870 5870 5870 5869 5868 5868 5866 5865 5864 5863 5861 5860 5858 5857 5855 5853 5852 5850 5848 5846 5845 5843 5841 5839 5837 5836 5834 5833 5832 5831 5831 5831 5831 5832 5833 5834 5835 5836 5838 5840
5866 5867 5867 5867 5867 5866 5866 5865 5864 5863 5862 5860 5859 5857 5856 5854 5853 5851 5849 5847 5845 5843 5841 5839 5838 5836 5834 5832 5830 5829 5827 5826 5825 5824 5823 5823 5823 5824 5825 5826 5827 5829 5830
5863 5863 5863 5863 5863 5862 5862 5861 5860 5859 5857 5856 5855 5853 5851 5850 5848 5846 5844 5842 5840 5838 5836 5834 5832 5830 5828 5826 5824 5822 5820 5819 5818 5816 5816 5815 5815 5815 5815 5816 5817 5819 5820
5859 5859 5859 5858 5858 5857 5857 5856 5855 5854 5852 5851 5849 5848 5846 5844 5842 5840 5839 5836 5834 5832 5830 5828 5825 5823 5821 5819 5817 5815 5813 5812 5810 5809 5808 5807 5806 5806 5806 5806 5807 5808 5809
5854 5854 5854 5853 5852 5852 5851 5850 5849 5848 5846 5845 5843 5842 5840 5838 5836 5834 5832 5830 5828 5825 5823 5821 5819 5816 5814 5812 5810 5808 5805 5804 5802 5800 5799 5799 5798 5797 5796 5796 5797 5797 5798
5849 5848 5848 5847 5846 5845 5844 5843 5842 5841 5840 5838 5836 5835 5833 5831 5829 5827 5825 5823 5821 5818 5816 5814 5811 5809 5806 5804 5802 5800 5798 5795 5793 5792 5790 5789 5788 5787 5787 5786 5786 5787 5787
5842 5842 5841 5840 5839 5838 5837 5836 5835 5834 5832 5831 5829 5827 5826 5824 5822 5819 5817 5815 5813 5810 5808 5806 5803 5801 5798 5796 5793 5791 5789 5787 5785 5783 5781 5780 5779 5778 5777 5776 5776 5776 5776
5835 5834 5834 5833 5832 5831 5830 5828 5827 5826 5824 5823 5821 5819 5817 5815 5813 5811 5809 5806 5804 5802 5799 5797 5795 5792 5789 5786 5784 5781 5779 5777 5776 5773 5771 5770 5768 5768 5766 5766 5766 5765 5765
5827 5826 5825 5824 5824 5822 5821 5819 5818 5817 5815 5814 5812 5810 5808 5806 5804 5802 5799 5797 5795 5792 5790 5787 5785 5782 5780 5777 5774 5772 5769 5767 5765 5763 5760 5760 5758 5757 5756 5755 5754 5754 5754
5819 5818 5816 5815 5815 5813 5811 5810 5809 5807 5806 5804 5803 5801 5798 5796 5794 5791 5789 5787 5785 5783 5780 5777 5775 5772 5769 5766 5763 5761 5758 5756 5755 5752 5749 5748 5747 5745 5744 5743 5743 5742 5742
5809 5808 5807 5805 5805 5803 5802 5800 5799 5798 5796 5795 5792 5790 5788 5786 5784 5781 5779 5777 5774 5772 5768 5766 5764 5762 5759 5756 5752 5750 5747 5745 5743 5741 5738 5736 5735 5733 5733 5732 5730 5730 5730
5799 5797 5796 5795 5794 5793 5792 5790 5788 5787 5785 5784 5782 5779 5777 5774 5772 5769 5767 5765 5763 5760 5757 5754 5752 5749 5747 5744 5741 5738 5735 5732 5730 5729 5726 5723 5722 5721 5720 5720 5718 5717 5717